www.pogodaiklimat.ru

Погода и климат >> Архив погоды >> Россия >> Магаданская область >> Усть-Бохапча


ПОГОДА в Усть-Бохапче

  • Прогноз погоды в Усть-Бохапче
  • Монитор погоды в Усть-Бохапче

АРХИВ ПОГОДЫ в Усть-Бохапче

Время (UTC), дата Ветер
(напр.,м/с)
 
Видим.   Явления Облачность Т
(С)
Тd
(С)
f
(%)
Тe
(С)
Тes
(С)
Комфортность P
(гПа)
Po
(гПа)
Тmin
(С)
Tmax
(С)
R
(мм)
R24
(мм)
S
(см)
09 11.02 штиль 0 50 км ясно -43.5 -47.8 62 -44 -44 опасность
обморожения
1022.8 971.2 -28.3
12 11.02 штиль 0 50 км ясно -46.9 -51.8 57 -47 -47 опасность
обморожения
1023.0 970.7
15 11.02 штиль 0 50 км ясно -47.1 -52.0 57 -47 -47 опасность
обморожения
1022.0 969.7
18 11.02 ЮВ 2 50 км ясно -44.7 -49.2 60 -55 -55 опасность
обморожения
1021.5 969.8
21 11.02 Ю 1 50 км ясно -44.2 -48.9 59 -50 -50 опасность
обморожения
1022.0 970.4 -47.9 81
00 12.02 штиль 0 50 км ясно -41.6 -45.9 63 -42 -40 опасность
обморожения
1021.5 970.4
03 12.02 штиль 0 50 км 1/0
[Ci fib]
-36.3 -41.9 56 -36 -35 опасность
обморожения
1019.9 970.0
06 12.02 штиль 0 50 км 1/0
[Ci fib]
-40.5 -46.0 55 -41 -41 опасность
обморожения
1021.4 970.6
09 12.02 штиль 0 50 км ясно -44.8 -49.3 60 -45 -45 опасность
обморожения
1023.3 971.5 -34.1
12 12.02 штиль 0 50 км 3/0
[Ci fib]
-46.5 -51.3 58 -47 -47 опасность
обморожения
1024.4 972.1
15 12.02 штиль 0 50 км ясно -46.4 -51.3 57 -46 -46 опасность
обморожения
1025.3 973.0
18 12.02 ЮВ 1 50 км ясно -47.1 -52.2 56 -53 -53 опасность
обморожения
1025.9 973.4
21 12.02 ЮВ 1 50 км ясно -44.2 -48.9 59 -50 -50 опасность
обморожения
1026.4 974.5 -47.8 81
00 13.02 штиль 0 50 км 8/0
[Ci fib]
-42.1 -46.9 59 -42 -41 опасность
обморожения
1027.1 975.7
03 13.02 С 1 50 км 8/0
[Ci fib]
-36.8 -42.5 55 -42 -40 опасность
обморожения
1025.5 975.2
06 13.02 ЮВ 1 50 км ясно -37.2 -43.7 51 -42 -42 опасность
обморожения
1025.9 975.6
09 13.02 штиль 0 50 км ясно -44.6 -48.8 63 -45 -45 опасность
обморожения
1028.7 976.6 -33.2
12 13.02 Ю 1 50 км ясно -43.3 -47.6 62 -49 -49 опасность
обморожения
1028.8 977.0
15 13.02 ЮВ 1 50 км ясно -43.2 -47.8 60 -49 -49 опасность
обморожения
1028.3 976.5
18 13.02 ЮВ 2 50 км ясно -43.7 -48.3 60 -53 -53 опасность
обморожения
1027.5 975.7
21 13.02 Ю 1 50 км ясно -45.3 -50.0 59 -51 -51 опасность
обморожения
1026.7 974.6 -46.7 81
00 14.02 ЮВ 2 50 км ясно -41.1 -45.6 62 -50 -49 опасность
обморожения
1024.9 973.8
03 14.02 Ю 1 50 км ясно -35.6 -42.8 47 -40 -39 опасность
обморожения
1020.6 970.8
06 14.02 ЮВ 1 50 км ясно -36.4 -42.8 51 -41 -41 опасность
обморожения
1018.8 969.0
09 14.02 Ю 1 50 км ясно -43.1 -47.3 63 -49 -49 опасность
обморожения
1019.1 967.9 -34.3
12 14.02 Ю 2 50 км ясно -43.3 -47.8 61 -53 -53 опасность
обморожения
1018.2 966.9
15 14.02 Ю 1 50 км ясно -46.7 -51.7 56 -53 -53 опасность
обморожения
1017.6 965.6
18 14.02 ЮВ 1 50 км ясно -45.9 -50.8 57 -52 -52 опасность
обморожения
1016.3 964.6
21 14.02 ЮВ 2 50 км ясно -46.3 -51.2 57 -56 -56 опасность
обморожения
1016.0 964.2 -47.4 81
00 15.02 Ю 1 50 км ясно -44.0 -48.7 59 -50 -48 опасность
обморожения
1014.7 963.5
03 15.02 штиль 0 50 км ясно -38.9 -43.0 65 -39 -37 опасность
обморожения
1011.2 961.2
06 15.02 Ю 1 50 км ясно -38.4 -42.3 66 -43 -43 опасность
обморожения
1009.9 960.1
09 15.02 штиль 0 50 км ясно -43.9 -48.5 60 -44 -44 опасность
обморожения
1010.5 959.5 -34.2
12 15.02 штиль 0 50 км ясно -47.0 -52.1 56 -47 -47 опасность
обморожения
1010.9 959.2
15 15.02 ЮВ 1 50 км ясно -45.8 -50.8 57 -52 -52 опасность
обморожения
1009.5 958.1
18 15.02 ЮВ 1 50 км ясно -44.3 -49.0 59 -50 -50 опасность
обморожения
1008.5 957.5
21 15.02 штиль 0 50 км ясно -45.9 -50.8 57 -46 -46 опасность
обморожения
1008.7 957.4 -48.3 81
00 16.02 Ю 1 50 км ясно -41.6 -46.4 59 -47 -46 опасность
обморожения
1007.1 956.8
03 16.02 штиль 0 50 км ясно -35.9 -41.7 55 -36 -34 опасность
обморожения
1003.6 954.6
06 16.02 штиль 0 50 км 8/0
[Ac trans Cc]
-34.3 -39.9 57 -34 -34 опасность
обморожения
1002.5 953.9
09 16.02 штиль 0 50 км 8/0
[Ac trans Ci fib]
-39.7 -43.8 65 -40 -40 опасность
обморожения
1004.1 954.3 -32.1
12 16.02 штиль 0 50 км 9/0
[Ac trans]
-36.4 -40.5 66 -36 -36 опасность
обморожения
1003.4 954.3
15 16.02 штиль 0 20 км слаб. снег 10/0
[Ac trans Cs]
-34.7 -38.4 69 -35 -35 опасность
обморожения
1003.1 954.4
18 16.02 штиль 0 10 км слаб. снег 10/0
[As op]
-33.4 -37.5 66 -33 -33 опасность
обморожения
1003.4 954.9
21 16.02 штиль 0 10 км слаб. снег 10/0
[As op]
-32.6 -36.5 68 -33 -33 опасность
обморожения
1004.3 955.9 -40.2 0.0 81
00 17.02 штиль 0 10 км слаб. снег 10/10 1500 м
[Sc]
-31.0 -35.4 65 -31 -31 опасность
обморожения
1005.3 957.3
03 17.02 штиль 0 10 км слаб. ливневой снег 10/10 1000 м
[Cb cap]
-27.8 -32.8 62 -28 -28 1004.7 957.2
06 17.02 З 2 20 км слаб. ливневой снег 10/10 1000 м
[Cb cap]
-27.0 -30.9 69 -34 -34 опасность
обморожения
1005.5 958.2
09 17.02 штиль 0 20 км слаб. ливневой снег 10/10 1000 м
[Cb cap]
-27.0 -30.3 73 -27 -27 1007.1 959.7 -26.5 0.5
12 17.02 Ю 1 20 км слаб. ливневой снег 10/10 1000 м
[Cb cap]
-26.3 -29.5 74 -30 -30 1007.3 960.0
15 17.02 штиль 0 20 км слаб. ливневой снег 10/10 1000 м
[Cb cap]
-26.6 -29.5 76 -27 -27 1008.1 960.7
18 17.02 штиль 0 20 км слаб. ливневой снег 10/10 1000 м
[Cb cap]
-26.3 -29.1 77 -26 -26 1008.5 961.1
21 17.02 штиль 0 20 км слаб. ливневой снег 10/10 1000 м
[Cb cap]
-25.9 -28.8 77 -26 -26 1009.1 961.8 -27.0 0.2 82
00 18.02 штиль 0 50 км {ливн. осадки} 10/10 1000 м
[Sc]
-24.1 -27.8 71 -24 -24 1009.3 962.3
03 18.02 С 1 50 км 4/3 1000 м
[Sc Ac trans]
-24.1 -27.8 71 -28 -26 1009.3 962.4
06 18.02 З 3 50 км 9/9 1000 м
[Sc]
-22.3 -25.7 74 -30 -30 1010.1 963.4

 

Местоположение метеостанции Усть-Бохапча (Магаданская область, Россия): широта 62.10 долгота 150.60 высота над уровнем моря 349 м.

В архиве по умолчанию представлена погода в Усть-Бохапче за последнюю неделю. Архивные данные за месяц целиком и за предыдущие месяцы, начиная с января 2011 года, Вы можете получить, выбрав интересующий диапазон дат из раскрывающегося списка и нажав кнопку "Ввод!".


*Определитесь, кто Вы:
робот инопланетянин человек

Внимание! Время в таблицах - всемирное. Для получения местного времени необходимо прибавить поправку, которая равна 11 ч.

Смотрите также архив погоды в соседних городах и на ближайших метеорологических станциях:

Погода на Озере Джека Лондона (Магаданская область, Россия) (57 км)
Погода в Ягодной (Магаданская область, Россия) (69 км)
Погода в Совхозе Эльген (Магаданская область, Россия) (78 км)
Погода в Среднекане (Магаданская область, Россия) (96 км)
Погода в Усть-Омчуге (Магаданская область, Россия) (121 км)
Погода в Сеймчане (Магаданская область, Россия) (129 км)
Погода в Талой (Магаданская область, Россия) (140 км)
Погода в Сусумане (Магаданская область, Россия) (149 км)
Погода в Колымской (Магаданская область, Россия) (159 км)
Погода в Мадауне (Магаданская область, Россия) (167 км)

Пояснения к столбцам:

Ветер - указаны скорость ветра в м/с - средняя за 10 мин, порывы в срок и между сроками (в фигурных скобках) и направление, откуда дует ветер: С - северный, СВ - северо-восточный, В - восточный, ЮВ - юго-восточный, Ю - южный, ЮЗ - юго-западный, З - западный, СЗ - северо-западный.
Видимость - горизонтальная дальность видимости в метрах или километрах. При видимости от 1 до 10 км при отсутствии осадков обычно наблюдается дымка, при ухудшении видимости до 1 км и менее - туман. В сухую погоду видимость может ухудшаться дымом, пылью или мглою.
Явления - указаны атмосферные явления, наблюдавшиеся в срок или в последний час перед сроком; фигурными скобками обозначены явления, наблюдавшиеся между сроками (за 1-3 часа до срока); квадратными скобками обозначены град или гололедные отложения с указанием их диаметра в мм.
Облачность - указаны через наклонную черту общая и нижняя облачность в баллах и высота нижней границы облаков в метрах; квадратными скобками обозначены формы облаков: Ci - перистые, Cs - перисто-слоистые, Cc - перисто-кучевые, Ac - высококучевые, As - высокослоистые, Sc - слоисто-кучевые, Ns - слоисто-дождевые, Cu - кучевые, Cb - кучево-дождевые. Подробнее классификацию облаков см. в Атласе облаков (PDF).
T - Температура воздуха - температура, измеренная на высоте 2 м над землей.
Td - Температура точки росы - температура, при понижении до которой содержащийся в воздухе водяной пар достигнет насыщения.
f - Относительная влажность воздуха - влажноcть воздуха, измеренная на высоте 2 м над землей.
Te - Эффективная температура - температура, которую ощущает одетый по сезону человек в тени. Характеристика душности погоды. При расчете учитывается влияние влажности воздуха и скорости ветра на теплоощущения человека.
Tes - Эффективная температура на солнце - температура, которую ощущает человек, с поправкой на солнечный нагрев. Характеристика знойности погоды. Зависит от высоты солнца над горизонтом, облачности и скорости ветра. Ночью, в пасмурную погоду, а также при ветре 12 м/с и более поправка равна нулю.
P - Атмосферное давление - приведенное к уровню моря атмосферное давление.
Po - Атмосферное давление - измеренное на уровне метеостанции атмосферное давление.
Tmin - Минимальная температура - минимум температуры воздуха на высоте 2 м над землей.
Tmax - Максимальная температура - максимум температуры воздуха на высоте 2 м над землей.
R - Количество осадков - Количество выпавших осадков за период времени, мм. При наведении курсора мыши на число - период времени, за который выпало указанное количество осадков.
R24 - Количество осадков - Количество выпавших осадков за 24 часа, мм.
S - Снежный покров - Высота снежного покрова, см. При наведении курсора мыши на число - состояние снежного покрова и степень покрытия местности в баллах.